TimeEDT,TemperatureF,Dew PointF,Humidity,Sea Level PressureIn,VisibilityMPH,Wind Direction,Wind SpeedMPH,Gust SpeedMPH,PrecipitationIn,Events,Conditions,WindDirDegrees,DateUTC
12:02 AM,55.4,55.4,100,30.01,2.5,SE,8.1,-,0.02,Rain,Light Rain,140,2013-09-11 04:02:00
12:07 AM,57.2,55.4,94,30.00,1.5,SE,9.2,-,0.02,Rain,Light Rain,140,2013-09-11 04:07:00
12:11 AM,57.2,55.4,94,30.00,0.8,SE,9.2,-,0.02,Rain,Light Rain,140,2013-09-11 04:11:00
12:53 AM,57.0,55.9,96,29.98,0.5,SSE,10.4,-,0.03,Fog,Fog,150,2013-09-11 04:53:00
1:53 AM,57.0,57.0,100,29.95,0.2,SSE,11.5,-,N/A,Fog,Fog,160,2013-09-11 05:53:00
2:53 AM,57.9,57.0,97,29.92,0.2,SSE,11.5,-,N/A,Fog,Fog,160,2013-09-11 06:53:00
3:53 AM,57.9,57.9,100,29.93,0.8,South,9.2,-,0.00,,Mist,170,2013-09-11 07:53:00
4:18 AM,57.2,57.2,100,29.93,1.5,SSE,6.9,-,0.01,Rain,Light Rain,160,2013-09-11 08:18:00
4:20 AM,57.2,57.2,100,29.94,2.0,SSE,3.5,-,0.01,Rain,Light Rain,150,2013-09-11 08:20:00
4:23 AM,57.2,57.2,100,29.93,1.5,SSE,3.5,-,0.01,,Overcast,150,2013-09-11 08:23:00
4:26 AM,57.2,57.2,100,29.93,0.8,SSE,4.6,-,0.01,,Mist,150,2013-09-11 08:26:00
4:37 AM,57.2,57.2,100,29.93,1.5,South,6.9,-,0.01,Rain,Light Rain,170,2013-09-11 08:37:00
4:53 AM,59.0,57.9,96,29.92,1.0,South,6.9,-,0.01,,Mist,170,2013-09-11 08:53:00
5:08 AM,59.0,57.2,94,29.94,0.5,SSE,9.2,-,N/A,Fog,Fog,160,2013-09-11 09:08:00
5:53 AM,59.0,57.9,96,29.92,0.2,SE,6.9,-,0.10,Fog-Rain,Light Rain,140,2013-09-11 09:53:00
6:53 AM,59.0,59.0,100,29.92,0.2,SSE,8.1,-,0.00,Fog,Fog,150,2013-09-11 10:53:00
7:53 AM,60.1,59.0,96,29.91,0.2,SSE,5.8,-,N/A,Fog,Fog,150,2013-09-11 11:53:00
8:24 AM,60.8,59.0,94,29.90,0.2,SSE,10.4,-,0.09,Fog-Rain-Thunderstorm,Rain,160,2013-09-11 12:24:00
8:34 AM,60.8,59.0,94,29.90,1.5,SSE,6.9,-,0.12,Rain-Thunderstorm,Light Thunderstorms and Rain,160,2013-09-11 12:34:00
8:44 AM,60.8,60.8,100,29.93,1.2,Calm,Calm,-,0.15,Rain-Thunderstorm,Rain,0,2013-09-11 12:44:00
8:53 AM,60.1,60.1,100,29.92,0.2,Calm,Calm,-,0.45,Fog-Rain-Thunderstorm,Heavy Rain,0,2013-09-11 12:53:00
8:59 AM,60.8,60.8,100,29.91,1.0,South,6.9,-,0.00,Rain,Light Rain,180,2013-09-11 12:59:00
9:01 AM,60.8,60.8,100,29.91,3.0,South,8.1,-,0.00,Rain-Thunderstorm,Light Rain,180,2013-09-11 13:01:00
9:05 AM,60.8,60.8,100,29.91,1.5,South,8.1,-,0.00,Rain-Thunderstorm,Light Rain,170,2013-09-11 13:05:00
9:07 AM,60.8,60.8,100,29.91,0.8,South,6.9,-,0.00,Rain-Thunderstorm,Light Rain,170,2013-09-11 13:07:00
9:36 AM,60.8,60.8,100,29.90,0.2,South,8.1,-,0.00,Fog,Fog,170,2013-09-11 13:36:00
9:53 AM,61.0,61.0,100,29.90,0.2,South,9.2,-,0.00,Fog,Fog,170,2013-09-11 13:53:00
10:53 AM,63.0,62.1,97,29.88,0.2,South,8.1,-,N/A,Fog,Fog,170,2013-09-11 14:53:00
11:35 AM,62.6,62.6,100,29.88,1.2,South,5.8,-,N/A,,Overcast,170,2013-09-11 15:35:00
11:51 AM,64.4,64.4,100,29.87,1.8,SSE,6.9,-,N/A,,Overcast,150,2013-09-11 15:51:00
11:53 AM,64.0,64.0,100,29.87,2.0,SSE,6.9,-,N/A,,Overcast,160,2013-09-11 15:53:00
12:18 PM,64.4,64.4,100,29.87,3.0,South,3.5,-,N/A,,Overcast,170,2013-09-11 16:18:00
12:36 PM,66.2,64.4,94,29.86,5.0,South,8.1,-,N/A,,Overcast,170,2013-09-11 16:36:00
12:43 PM,66.2,66.2,100,29.85,7.0,South,5.8,-,N/A,,Overcast,170,2013-09-11 16:43:00
12:53 PM,68.0,66.9,96,29.85,9.0,Variable,4.6,-,N/A,,Overcast,0,2013-09-11 16:53:00
1:10 PM,68.0,66.2,94,29.86,10.0,Calm,Calm,-,N/A,,Overcast,0,2013-09-11 17:10:00
1:40 PM,69.8,68.0,94,29.85,10.0,Calm,Calm,-,N/A,,Mostly Cloudy,0,2013-09-11 17:40:00
1:53 PM,72.0,68.0,87,29.84,10.0,Calm,Calm,-,0.00,Rain,Light Rain,0,2013-09-11 17:53:00
2:53 PM,73.9,69.1,85,29.82,10.0,WSW,4.6,-,0.00,,Mostly Cloudy,250,2013-09-11 18:53:00
3:40 PM,71.6,69.8,94,29.83,10.0,Variable,3.5,-,N/A,,Mostly Cloudy,0,2013-09-11 19:40:00
3:53 PM,72.0,69.1,91,29.82,10.0,Calm,Calm,-,N/A,,Overcast,0,2013-09-11 19:53:00
4:00 PM,71.6,69.8,94,29.82,10.0,Calm,Calm,-,N/A,,Overcast,0,2013-09-11 20:00:00
4:53 PM,72.0,68.0,87,29.81,10.0,SW,4.6,-,N/A,,Scattered Clouds,220,2013-09-11 20:53:00
5:53 PM,73.9,66.0,76,29.81,10.0,West,15.0,21.9,N/A,,Scattered Clouds,260,2013-09-11 21:53:00
6:53 PM,71.1,64.9,81,29.81,10.0,West,5.8,-,N/A,,Clear,260,2013-09-11 22:53:00
7:53 PM,69.1,64.9,87,29.82,10.0,WNW,4.6,-,N/A,,Clear,290,2013-09-11 23:53:00
8:53 PM,66.9,63.0,87,29.86,10.0,WNW,4.6,-,N/A,,Partly Cloudy,300,2013-09-12 00:53:00
9:53 PM,64.9,64.0,97,29.87,10.0,Calm,Calm,-,N/A,,Clear,0,2013-09-12 01:53:00
10:03 PM,64.4,64.4,100,29.87,10.0,Calm,Calm,-,N/A,,Partly Cloudy,0,2013-09-12 02:03:00
10:53 PM,64.9,63.0,93,29.87,10.0,SW,3.5,-,N/A,,Clear,230,2013-09-12 02:53:00
11:10 PM,62.6,62.6,100,29.87,1.5,Calm,Calm,-,N/A,,Partly Cloudy,0,2013-09-12 03:10:00
11:12 PM,62.6,62.6,100,29.87,0.8,Calm,Calm,-,N/A,,Mist,0,2013-09-12 03:12:00
11:24 PM,64.4,62.6,94,29.87,2.0,Calm,Calm,-,N/A,,Mostly Cloudy,0,2013-09-12 03:24:00
11:31 PM,64.4,62.6,94,29.87,10.0,Calm,Calm,-,N/A,,Mostly Cloudy,0,2013-09-12 03:31:00
11:36 PM,64.4,62.6,94,29.87,1.5,NNW,3.5,-,N/A,,Overcast,330,2013-09-12 03:36:00
11:38 PM,62.6,62.6,100,29.87,0.8,NNW,4.6,-,N/A,,Overcast,340,2013-09-12 03:38:00
11:50 PM,62.6,62.6,100,29.87,0.5,NW,3.5,-,N/A,Fog,Fog,320,2013-09-12 03:50:00
11:53 PM,63.0,62.1,97,29.86,0.5,Calm,Calm,-,N/A,Fog,Fog,0,2013-09-12 03:53:00
11:58 PM,64.4,62.6,94,29.87,1.5,NNW,4.6,-,N/A,,Overcast,340,2013-09-12 03:58:00